Regional Weather Roundup
Issued by NWS

Home | Current Version | Previous Version | Graphics & Text | Print | Product List | Glossary On
Versions: 1 2 3 4 5 6 7 8 9 10 11 12 13 14 15 16 17 18 19 20 21 22 23 24 25 26 27 28 29 30 31 32 33 34 35 36 37 38 39 40 41 42 43 44 45 46 47 48 49 50
000
ASUS43 KOAX 280702
RWRNE

WEATHER ROUNDUP FOR NEBRASKA
NATIONAL WEATHER SERVICE OMAHA NE
100 AM CST WED JAN 28 2015

NOTES: SATELLITE DATA IS BEING USED TO AUGMENT CLOUD COVER ABOVE
       12000 FEET.
       "FAIR" INDICATES FEW OR NO CLOUDS BELOW 12,000 FEET WITH NO
       SIGNIFICANT WEATHER AND/OR OBSTRUCTIONS TO VISIBILITY.

  * THESE STATIONS DO NOT REPORT WEATHER SUCH AS RAIN...SNOW OR FOG.

NEZ001>004-019>022-054>056-280800-
NEBRASKA PANHANDLE

CITY           SKY/WX    TMP DP  RH WIND       PRES   REMARKS
SCOTTSBLUFF      N/A    N/A N/A N/A MISG      29.96S
ALLIANCE       PTCLDY    37  28  70 SW13      29.93F WCI  29
CHADRON        CLEAR     39  29  67 SW8       29.88F WCI  33
SIDNEY         CLEAR     37  27  67 NW14      29.96S WCI  28
$$

NEZ057>060-069>072-079>082-280800-
SOUTHWEST NEBRASKA

CITY           SKY/WX    TMP DP  RH WIND       PRES   REMARKS
NORTH PLATTE   CLEAR     28  24  85 NW7       29.89F WCI  21
IMPERIAL       PTCLDY    36  26  67 W6        29.89F WCI  31
MCCOOK         PTCLDY    40  28  62 SW5       29.87F
$$

NEZ005>010-023>029-035>040-094-280800-
NORTH CENTRAL NEBRASKA

CITY           SKY/WX    TMP DP  RH WIND       PRES   REMARKS
VALENTINE      CLEAR     40  31  70 SW10      29.84F WCI  33
BROKEN BOW     CLEAR     32  27  81 CALM      29.87F
ORD            CLEAR     31  27  85 SE3       29.87F
$$

NEZ041-046>049-061>064-073>077-083>087-280800-
SOUTH CENTRAL NEBRASKA

CITY           SKY/WX    TMP DP  RH WIND       PRES   REMARKS
GRAND ISLAND   PTCLDY    36  29  75 S5        29.90F WCI  32
HASTINGS       PTCLDY    37  29  72 SE5       29.88F WCI  33
KEARNEY *      PTCLDY    37  28  70 CALM      29.88F
$$

NEZ011>018-030>034-042>045-280800-
NORTHEAST NEBRASKA

CITY           SKY/WX    TMP DP  RH WIND       PRES   REMARKS
NORFOLK        CLEAR     38  30  73 SE8       29.90F WCI  32
COLUMBUS *     PTCLDY    39  27  60 SE8       29.92F WCI  34
TEKAMAH        CLEAR     34  29  82 SE9       29.96F WCI  27
$$

NEZ050>053-065>068-078-088>093-280800-
SOUTHEAST NEBRASKA

CITY           SKY/WX    TMP DP  RH WIND       PRES   REMARKS
LINCOLN        PTCLDY    39  30  70 SE8       29.95F WCI  33
OMAHA EPPLEY   PTCLDY    39  31  72 SE16      29.98F WCI  30
FALLS CITY     CLEAR     38  30  73 SE10      29.98F WCI  31
$$

NEZ044-045-051>053-067-280800-
OMAHA AREA

CITY           SKY/WX    TMP DP  RH WIND       PRES   REMARKS
OMAHA EPPLEY   PTCLDY    39  31  72 SE16      29.98F WCI  30
OFFUTT AFB     CLEAR     37  31  77 E12       29.97F WCI  29
$$



USA.gov is the U.S. government's official web portal to all federal, state and local government web resources and services.